Simultaneous Nadir Overpasses (SNOs) Predictions

Prediction of SNOs between GOES-16 and METOP-B Satellite Orbit:

Table of predicted SNOs for the next 14.0 days since TLE Epoch: 4/18/2025
Index Date Time (GOES-16) GOES-16 Lat,Lon METOP-B Lat,Lon Distance(km) Time Diff (sec)
1 04/19/2025 14:42:15 0.06, -79.83 0.73, -82.83 341.70 80
2 04/20/2025 14:18:59 0.06, -80.32 -0.51, -77.87 279.39 80
3 04/22/2025 02:40:43 -0.06, -81.06 -0.37, -82.53 166.76 80
4 04/23/2025 02:17:25 -0.05, -81.56 0.81, -77.56 454.83 80
5 04/24/2025 14:36:21 0.05, -82.35 0.05, -82.18 18.03 80
6 04/26/2025 02:58:06 -0.05, -83.10 -0.86, -86.86 427.51 80
7 04/27/2025 02:34:49 -0.05, -83.60 0.33, -81.89 194.53 80
8 04/28/2025 14:56:24 0.05, -84.39 0.51, -86.52 242.04 80
9 04/29/2025 14:33:06 0.05, -84.89 -0.68, -81.55 379.90 80
10 05/01/2025 02:54:51 -0.04, -85.64 -0.17, -86.21 65.29 80
